La Gomera > ESTACION METEOROLÓGICA San Sebastián de la Gomera

DATOS ACTUALES Online

Ultima actulizacion 1 h 19 minutos

21.6 ºC

Temperatura

74

Humedad (%)

1020.6

Presión (mb)

0

Precipitación (mm)

5.4 N

Viento (Km/h)

DATOS DIARIOS

Temperatura últimas 24 horas (ºC)

Humedad últimas 24 horas (%)

Presión atmosférica últimas 24 horas (mb)

Precipitaciones últimas 23 horas (mm)

Viento últimas 24 horas (Km/h)

Hora Temperatura (°C) ºC Precipitación (mm) mm Presión (mb) mb Humedad (%) % Viento (Km/h) km/h
28 - 10:00 21.9 0 1020 70 3.6 N
28 - 11:00 22.4 0 1021 70 2.9 N
28 - 12:00 22.6 0 1021 70 3.8 NW
28 - 13:00 23.1 0 1021 70 2.9 N
28 - 14:00 23.5 0 1021 69 3.9 NW
28 - 15:00 23.3 0 1020 67 4.5 N
28 - 16:00 23.8 0 1020 67 3.7 N
28 - 17:00 23.8 0 1020 67 5.6 N
28 - 18:00 22.9 0 1020 70 4.9 NW
28 - 19:00 22.2 0 1020 73 5.1 N
28 - 20:00 21.8 0 1020 73 5.8 N
28 - 21:00 21.5 0 1020 72 6.4 N
28 - 22:00 21.4 0 1020 71 5.7 N
28 - 23:00 21.5 0 1021 74 5.2 N
29 - 00:00 21.7 0 1021 71 4.7 N
29 - 01:00 21.7 0 1021 73 5.2 N
29 - 02:00 21.3 0 1020 75 5.5 N
29 - 03:00 21 0 1020 76 5.9 N
29 - 04:00 21 0 1019 75 4.8 N
29 - 05:00 20.9 0 1019 77 4.3 N
29 - 06:00 21.1 0 1019 75 5.1 NW
29 - 07:00 21 0 1020 70 5.1 N
29 - 08:00 20.8 0 1020 77 5 N
29 - 09:00 21.6 0 1021 74 5.4 N
29 - 10:00
Apalmet utiliza cookies propias y de terceros para mejorar la usabilidad y la experiencia web. Política de cookies.